Weather Roundup
Issued by NWS Chicago, IL

Home | Current Version | Previous Version | Text Only | Print | Product List | Glossary Off
Versions: 1 2 3 4 5 6 7 8 9 10 11 12 13 14 15 16 17 18 19 20 21 22 23 24 25 26 27 28 29 30 31 32 33 34 35 36 37 38 39 40 41 42 43 44 45 46 47 48 49 50

000
NZUS59 KLOT 010110
HRRLOT

CHICAGO AREA WEATHER ROUNDUP
NATIONAL WEATHER SERVICE CHICAGO/ROMEOVILLE IL
800 PM CDT SUN AUG 31 2014

NOTE: "FAIR" INDICATES FEW OR NO CLOUDS BELOW 12,000 FEET WITH NO
SIGNIFICANT WEATHER AND/OR OBSTRUCTIONS TO VISIBILITY.

* THESE STATIONS ARE NOT UNDER NWS QUALITY CONTROL. THEY ALSO MAY NOT
  REPORT WEATHER SUCH AS PRECIPITATION OR FOG.

ILZ005-006-012>014-019>023-010200-
NORTHEAST ILLINOIS

CITY           SKY/WX    TMP DP  RH WIND       PRES   REMARKS
OHARE          PTCLDY    80  67  64 SW6       29.88F HX  82
MIDWAY         PTCLDY    82  69  64 SW12      29.89S HX  85
AURORA         CLEAR     75  68  78 S7        29.88F
LANSING*         N/A    N/A N/A N/A MISG        N/A
JOLIET*        CLEAR     75  68  79 S3        29.90F
WAUKEGAN       CLEAR     74  65  73 S7        29.87F
DUPAGE AIRPORT CLEAR     75  68  78 S7        29.88F
WHEELING       CLEAR     81  65  58 S7        29.88F HX  83
KANKAKEE*      CLEAR     73  71  91 CALM      29.91F
MORRIS*        CLEAR     74  72  92 S5        29.88F
LEWIS AIRPORT* CLEAR     73  69  89 S7        29.89F
NORTHERLY IS     N/A     81  66  60 S13         N/A  HX  83
$$

WIZ051-052-058>065-066-070>072-010200-
SOUTHEAST WISCONSIN

CITY           SKY/WX    TMP DP  RH WIND       PRES   REMARKS
MILWAUKEE      PTCLDY    75  67  76 SE7       29.86F
KENOSHA*       CLEAR     75  67  76 S5        29.87F
RACINE*        CLEAR     74  68  81 S6        29.88F
BURLINGTON     CLEAR     69  65  88 S3        29.87F
WAUKESHA       CLEAR     75  64  69 S9        29.87F
WEST BEND      CLOUDY    68  64  88 CALM      29.86F FOG
$$

INZ001>003-010>013-019-020-010200-
NORTHWEST INDIANA

CITY           SKY/WX    TMP DP  RH WIND       PRES   REMARKS
GARY*          PTCLDY    79  68  69 S7        29.90F HX  81
MICHIGAN CITY* NOT AVBL
RENSSELAER*    NOT AVBL
VALPARAISO     CLEAR     75  68  78 S3        29.93S
$$

LMZ740>746-010200-
SOUTHERN LAKE MICHIGAN

STATION/POSITION TIME  SKY/WX   TEMP WIND        PRES    VSBY
                                AIR  DIR/SP/G
                 (UTC)          (F)  (DEG/KT/KT) (MB)    (MI)
HARRISON CRIB    0100            80  190/ 15/ 18   N/A
BURNHAM HARBOR   0100            81  180/  8/ 13   N/A
CALUMET HARBOR   0100            80  190/  5/  8 1011.2F
BURNS HARBOR     NOT AVBL
MICHIGAN CITY    0100            79  170/  6/  7   N/A
$$

ABBREVIATIONS USED IN REMARKS
   TC - TEMPERATURE IN CELSIUS
  WCI - WIND CHILL INDEX
   HX - HEAT INDEX
  VSB - VISIBILITY
$$


USA.gov is the U.S. government's official web portal to all federal, state and local government web resources and services.